[[{"header":{"parameterUnit":"m.s-1","parameterCategory":1,"la1":30.2992,"la2":30.254,"lo1":-89.0895,"lo2":-89.0443,"dy":0.0025,"dx":0.0025,"nx":19,"ny":19,"refTime":"2026-04-07T21:00:00:Z","depth":0,"parameterNumber":2,"parameterNumberName":"U-component_of_WINDS"},"data":[0,0,0,-6.3701,-6.3707,-6.3965,-6.3965,-6.4329,-6.4333,0,0,0,0,0,0,0,0,0,0,0,-6.3642,-6.3644,-6.3701,-6.3707,-6.3964,-6.3966,-6.4329,-6.4333,0,0,0,0,0,0,0,0,0,0,0,-6.364,-6.3644,-6.3647,-6.3708,-6.3964,-6.3966,-6.4328,-6.4122,0,0,0,0,0,0,0,0,0,0,-6.3867,-6.3827,-6.3643,-6.3648,-6.371,-6.3964,-6.3966,-6.4112,-6.4135,-6.4226,0,-6.4308,0,-6.4326,-6.4359,-6.436,0,0,0,-6.3696,-6.3808,-6.3862,-6.3648,-6.3713,-6.3964,-6.3845,-6.4125,-6.4151,-6.4257,-6.4313,-6.4325,-6.4332,-6.4362,-6.4364,-6.4917,-6.492,0,0,-6.3682,-6.3698,-6.3844,-6.388,-6.3837,-6.3837,-6.3853,-6.414,-6.4203,-6.4314,-6.4334,-6.4338,-6.4364,-6.4367,-6.4914,-6.4918,0,0,0,-6.3649,-6.3689,-6.3734,-6.3865,-6.3909,-6.3845,-6.3864,-6.419,-6.4204,-6.4337,-6.4342,-6.4366,-6.4371,-6.491,-6.4915,-6.5082,0,0,0,-6.364,-6.3669,-6.3729,-6.3742,-6.3904,-6.4052,-6.3908,-6.4184,-6.4216,-6.4341,-6.4367,-6.4375,-6.4907,-6.4913,-6.507,-6.5159,0,0,0,-6.3619,-6.3666,-6.3709,-6.3742,-6.3852,-6.4047,-6.4077,-6.419,-6.422,-6.4361,-6.4376,-6.4904,-6.4912,-6.5059,-6.5141,-6.5308,0,0,0,-6.3603,-6.3856,-6.3712,-6.3997,-6.3851,-6.4147,-6.4074,-6.4296,-6.4437,-6.4369,-6.4907,-6.4915,-6.5056,-6.513,-6.5297,-6.545,-6.5516,0,0,-6.3932,-6.3897,-6.4063,-6.3941,-6.4267,-6.4107,-6.446,-6.4575,-6.4577,-6.4805,-6.4818,-6.5074,-6.514,-6.5306,-6.588,-6.5932,0,0,0,-6.4173,-6.4293,-6.4376,-6.4508,-6.4601,-6.4688,-6.4747,-6.4791,-6.4982,-6.4695,-6.518,-6.5218,-6.5315,-6.5388,-6.5432,-6.5514,-6.4949,-6.4948,-6.4948,-6.4661,-6.4646,-6.4921,-6.4937,-6.5068,-6.5126,-6.5231,-6.53,-6.5249,-6.5364,-6.5431,-6.5781,-6.5867,-6.59,-6.5985,-6.5512,-6.5513,-6.5513,-6.5514,-6.5141,-6.5308,-6.5232,-6.5471,-6.5455,-6.5658,-6.5726,-6.5683,-6.5871,-6.5729,-6.5814,-6.5658,-6.5957,-6.6031,-6.5526,-6.5524,-6.5523,-6.5521,-6.552,-6.5458,-6.5535,-6.5581,-6.5771,-6.5921,-6.593,-6.6113,-6.6094,-6.6077,-6.6161,-6.623,-6.6227,-6.6221,-6.6195,-6.6196,-6.6198,-6.6199,-6.6199,-6.62,-6.5768,-6.5814,-6.5969,-6.6088,-6.617,-6.6277,-6.634,-6.6422,-6.6509,-6.6481,-6.6481,-6.642,-6.5989,-6.588,-6.6219,-6.6216,-6.6213,-6.6211,-6.621,-6.6258,-6.6144,-6.6382,-6.6465,-6.6603,-6.6754,-6.6726,-6.6896,-6.6962,-6.7053,-6.6975,-6.6659,-6.6623,-6.6588,-6.6498,-6.6976,-6.6976,-6.6976,-6.6976,-6.6525,-6.6504,-6.6742,-6.6876,-6.7005,-6.7004,-6.7278,-6.7331,-6.7368,-6.7409,-6.7337,-6.7217,-6.7182,-6.7166,-6.7119,-6.7034,-6.7639,-6.7639,-6.764,-6.6825,-6.6815,-6.705,-6.708,-6.7187,-6.7281,-6.7539,-6.7699,-6.7718,-6.7666,-6.744,-6.7412,-6.7218,-6.7155,-6.7096,-6.7023,-6.6867,0,0]},{"header":{"parameterUnit":"m.s-1","parameterCategory":1,"la1":30.2992,"la2":30.254,"lo1":-89.0895,"lo2":-89.0443,"dy":0.0025,"dx":0.0025,"nx":19,"ny":19,"refTime":"2026-04-07T21:00:00:Z","depth":0,"parameterNumber":3,"parameterNumberName":"V-component_of_WINDS"},"data":[0,0,0,0.7436,0.7434,0.7346,0.7345,0.7258,0.7257,0,0,0,0,0,0,0,0,0,0,0,0.7477,0.7477,0.7436,0.7434,0.7346,0.7345,0.7258,0.7257,0,0,0,0,0,0,0,0,0,0,0,0.7477,0.7477,0.7477,0.7434,0.7346,0.7345,0.7258,0.7316,0,0,0,0,0,0,0,0,0,0,0.7397,0.745,0.7477,0.7477,0.7433,0.7346,0.7345,0.7318,0.7312,0.7308,0,0.7309,0,0.7282,0.7253,0.7253,0,0,0,0.7423,0.7455,0.7418,0.7477,0.7433,0.7346,0.7382,0.7314,0.7308,0.7301,0.7308,0.7304,0.7281,0.7252,0.7252,0.7269,0.727,0,0,0.7428,0.747,0.7422,0.7414,0.7429,0.7385,0.738,0.731,0.732,0.7307,0.7301,0.7279,0.7252,0.7252,0.7269,0.727,0,0,0,0.7449,0.7474,0.7437,0.7418,0.7401,0.7383,0.7377,0.7324,0.7308,0.73,0.7278,0.7252,0.7251,0.7268,0.7269,0.734,0,0,0,0.7452,0.7486,0.744,0.7465,0.7402,0.7361,0.7393,0.7313,0.7304,0.7279,0.7252,0.725,0.7267,0.7269,0.7337,0.7367,0,0,0,0.7478,0.7489,0.7481,0.7467,0.743,0.7361,0.7341,0.731,0.7291,0.7253,0.725,0.7267,0.7268,0.7333,0.7361,0.7383,0,0,0,0.7518,0.7546,0.7483,0.7506,0.7432,0.7406,0.7341,0.732,0.7296,0.7251,0.7267,0.7269,0.7332,0.7358,0.738,0.7409,0.7426,0,0,0.7577,0.7555,0.7565,0.7506,0.7502,0.7416,0.7422,0.736,0.7318,0.7288,0.7288,0.7338,0.7361,0.7383,0.7501,0.7514,0,0,0,0.7598,0.7606,0.7595,0.7574,0.7527,0.749,0.7422,0.7399,0.7371,0.7311,0.735,0.7363,0.7374,0.7386,0.7397,0.7403,0.7276,0.7276,0.7276,0.7743,0.7687,0.77,0.7633,0.7614,0.7543,0.7522,0.7479,0.7429,0.7439,0.743,0.7508,0.7524,0.7532,0.754,0.7441,0.7441,0.7441,0.7441,0.7824,0.7827,0.7759,0.7747,0.7688,0.7677,0.7611,0.7576,0.7557,0.7511,0.7518,0.7472,0.7548,0.7552,0.7446,0.7445,0.7445,0.7444,0.7444,0.7913,0.7904,0.7876,0.7838,0.7816,0.7748,0.7733,0.7679,0.7629,0.7636,0.762,0.7619,0.7611,0.7632,0.7632,0.7633,0.7633,0.7633,0.7633,0.8017,0.7982,0.7976,0.7928,0.7907,0.7872,0.7802,0.7779,0.7741,0.7703,0.7703,0.7652,0.7566,0.7545,0.7637,0.7636,0.7636,0.7636,0.7635,0.8121,0.8089,0.808,0.8059,0.7998,0.7979,0.791,0.7869,0.7843,0.7838,0.7784,0.773,0.7703,0.7694,0.7677,0.7797,0.7797,0.7797,0.7797,0.8196,0.8177,0.8156,0.8125,0.8089,0.8026,0.8018,0.7963,0.7901,0.7881,0.7855,0.7828,0.7821,0.7798,0.7787,0.777,0.7911,0.7911,0.7911,0.8257,0.8232,0.8235,0.8174,0.8122,0.8079,0.8068,0.8036,0.7959,0.7914,0.7864,0.7859,0.7814,0.7802,0.7758,0.7741,0.7709,0,0]}]]